User: anonymous   Login
Location: Unspecified
(0.0000°N, 0.0000°E)
Time: 22:30:07
(UTC+00:00)
Language:

APRIZESAT 2 (LATINSAT D) - Orbit

View from above orbital plane
View from above orbital plane
View from above satellite
View from above satellite

Ground track
Ground track

The orbit data is extracted from the following two-line orbital elements,

1 28366U 04025A   18174.70417507 -.00000010  00000-0  10893-4 0  9995
2 28366  98.3251  81.7433 0108221  19.0842 341.4351 14.36645056732934
Epoch (UTC): 23 June 2018 16:54:00
Eccentricity: 0.0108221
inclination: 98.3251°
perigee height: 692 km
apogee height: 847 km
right ascension of ascending node: 81.7433°
argument of perigee: 19.0842°
revolutions per day: 14.36645056
mean anomaly at epoch: 341.4351°
orbit number at epoch: 73293

The dashed part of the orbit path shows where the satellite is in the earth's shadow,  

DLR